This is the latest recevied weather packets stored in our database for station/object N9CQS-13. If no packets are shown the sender has not sent any weather packets the latest 10 day(s).
| Time | Temp. | Humidity | Pressure | Rain* | Wind** | Luminosity | Snow |
|---|---|---|---|---|---|---|---|
| 1777141892 | 19.44° C | 58% | 1013.8 hPa | 0 mm | - | - | - |
| 1777141291 | 18.33° C | 58% | 1013.9 hPa | 0 mm | - | - | - |
| 1777140692 | 18.33° C | 58% | 1014 hPa | 0 mm | - | - | - |
| 1777140092 | 17.78° C | 59% | 1014.1 hPa | 0 mm | - | - | - |
| 1777139491 | 17.22° C | 62% | 1014.4 hPa | 0 mm | - | - | - |
| 1777138891 | 16.67° C | 66% | 1014.6 hPa | 0 mm | - | - | - |
| 1777138291 | 16.11° C | 67% | 1014.8 hPa | 0 mm | - | - | - |
| 1777137692 | 16.11° C | 67% | 1014.9 hPa | 0 mm | - | - | - |
| 1777137091 | 16.11° C | 67% | 1015 hPa | 0 mm | - | - | - |
| 1777136492 | 16.11° C | 70% | 1014.9 hPa | 0 mm | - | - | - |
| 1777135891 | 15° C | 73% | 1014.9 hPa | 0 mm | - | - | - |
| 1777135291 | 14.44° C | 72% | 1014.7 hPa | 0 mm | - | - | - |
| 1777134692 | 14.44° C | 75% | 1014.9 hPa | 0 mm | - | - | - |
| 1777134091 | 13.33° C | 76% | 1015 hPa | 0 mm | - | - | - |
| 1777132891 | 12.78° C | 79% | 1014.9 hPa | 0 mm | - | - | - |
| 1777132292 | 12.78° C | 80% | 1014.9 hPa | 0 mm | - | - | - |
| 1777131692 | 12.22° C | 81% | 1015.1 hPa | 0 mm | - | - | - |
| 1777131091 | 12.22° C | 82% | 1015.1 hPa | 0 mm | - | - | - |
| 1777130492 | 12.22° C | 81% | 1015.1 hPa | 0 mm | - | - | - |
| 1777129892 | 12.22° C | 81% | 1015.1 hPa | 0 mm | - | - | - |
| 1777129291 | 12.22° C | 82% | 1015.1 hPa | 0 mm | - | - | - |
| 1777128691 | 12.22° C | 82% | 1014.7 hPa | 0 mm | - | - | - |
| 1777128092 | 12.22° C | 82% | 1014.7 hPa | 0 mm | - | - | - |
| 1777127492 | 12.22° C | 83% | 1014.5 hPa | 0 mm | - | - | - |
| 1777126291 | 11.67° C | 87% | 1014.5 hPa | 0 mm | - | - | - |
* Rain latest hour (hover to see other rain measurements)
** Current wind speed in m/s (hover to see current wind gust speed)